Presure
457 400 358 348 354 336 337 336 337 286 276 286 274 241 257 242 255 251 236 203 193 178 180 181 118 187 187 192 189 187 172 169 188 179 173 170 168 170 152 168 143 139 139 144
456 397 378 333 341 332 348 336 334 312 288 288 279 263 270 248 256 261 254 231 191 189 184 174 184 184 183 191 119 197 189 117 139 181 195 181 173 156 158 168 167 171 171 164
482 387 358 343 348 333 323 340 289 320 307 294 284 268 268 264 264 255 254 245 207 192 138 153 155 187 188 183 195 185 198 193 178 173 169 173 188 175 163 168 177 162 160 162
467 396 358 345 335 340 332 313 331 310 308 300 284 268 270 268 270 259 282 250 210 170 196 187 173 174 185 186 187 198 194 185 197 185 171 142 176 175 182 165 138 172 166 168
459 402 350 341 324 331 338 315 322 306 298 290 285 277 264 271 264 252 254 253 237 197 190 223 176 180 181 164 189 189 187 191 191 192 209 176 160 172 172 164 173 179 163 159
427 380 347 339 336 317 328 363 314 317 286 287 281 282 276 270 258 263 259 243 247 229 187 212 224 189 161 175 181 187 193 199 194 204 190 184 194 161 170 174 179 154 149 183
427 363 340 334 324 298 331 331 327 295 285 280 287 286 279 275 265 261 255 252 252 241 212 210 186 211 190 164 165 167 188 194 193 194 204 180 195 211 142 172 179 178 177 172
397 367 339 329 316 298 325 351 321 305 287 287 293 292 279 279 266 264 255 249 251 238 192 224 210 160 181 192 186 168 169 183 169 192 198 208 168 183 213 191 158 170 186 180
374 364 344 320 310 304 309 316 326 350 310 284 288 285 274 276 263 264 257 252 246 243 244 188 188 170 223 211 176 178 170 168 181 171 172 199 209 178 165 197 159 159 171 173
366 350 330 312 311 300 297 327 320 326 318 280 279 287 285 277 265 259 259 252 244 242 239 234 205 186 202 252 205 189 181 179 181 211 174 165 201 217 173 182 176 207 201 170
348 341 326 317 311 305 290 309 334 302 364 286 271 322 301 270 262 262 257 251 249 247 248 243 236 223 191 187 182 202 202 174 174 174 214 188 173 183 223 178 169 164 175 194
338 324 313 304 312 300 286 324 314 320 352 319 301 311 276 275 266 299 261 256 251 252 248 245 244 242 223 210 197 183 207 198 191 184 184 178 181 186 177 208 226 167 169 167
271 317 316 307 307 295 292 316 310 308 321 338 279 291 266 265 297 272 267 261 256 252 250 251 249 250 242 234 222 204 201 203 203 191 189 190 189 186 195 190 182 193 184 168
325 318 314 298 302 298 279 309 314 314 326 306 283 293 293 267 266 260 278 273 264 263 265 267 268 264 270 276 243 230 219 209 205 205 203 202 199 198 199 195 200 196 185 183
320 313 312 303 291 285 311 290 303 314 291 304 282 279 258 256 273 265 250 263 259 262 265 268 272 272 272 279 281 289 295 271 237 230 228 223 218 217 213 210 208 206 204 196
139 142 301 300 250 297 283 313 298 292 298 291 285 271 287 282 271 253 255 249 246 255 248 258 272 274 278 278 284 296 295 283 287 296 287 248 241 111 232 228 224 224 222 217
222 302 288 307 295 265 298 295 290 295 293 299 291 286 267 274 269 259 258 253 248 248 247 247 244 269 253 250 250 262 271 288 280 274 286 285 282 280 268 246 239 238 230 226
131 310 295 301 291 277 282 283 274 282 286 295 291 296 307 261 265 255 266 264 257 251 255 261 259 271 264 263 274 274 268 267 262 283 277 263 265 271 279 284 282 277 270 258
130 242 307 293 279 280 273 265 273 269 273 276 278 288 289 286 275 256 248 263 263 247 248 254 255 253 260 264 265 263 277 273 272 271 269 271 275 278 295 297 308 318 318 316
117 224 309 300 296 279 277 273 276 275 262 272 276 280 276 286 272 262 265 266 270 259 248 246 250 255 258 254 256 256 274 257 259 260 261 262 267 296 321 293 306 272 306 405
331 326 334 306 303 297 283 278 285 280 270 273 270 268 273 278 276 270 267 264 264 267 263 258 253 255 260 261 271 271 274 275 278 278 278 279 279 277 291 292 332 327 341 321
312 322 318 331 321 311 307 300 276 272 266 264 279 274 277 268 263 265 271 267 262 263 262 267 267 264 264 268 261 267 269 273 286 280 264 281 281 277 284 282 299 301 295 323
362 328 313 307 293 319 304 296 301 289 278 265 263 268 271 272 279 277 262 268 269 267 267 281 281 281 282 274 275 277 271 263 275 269 280 274 274 280 285 281 279 307 301 309
271 301 322 311 300 287 303 309 309 296 291 284 282 284 269 262 268 272 277 262 260 261 267 268 271 267 261 263 262 259 274 272 282 279 278 273 290 285 273 272 283 276 301 298
254 350 353 317 299 291 281 283 285 289 299 301 259 302 304 294 276 275 265 266 267 267 267 274 280 288 270 273 276 271 277 282 278 272 284 278 263 271 270 266 264 275 271 289
242 256 351 344 314 300 288 281 274 276 275 272 277 280 286 285 285 287 286 286 288 293 288 288 286 284 283 276 282 293 273 268 268 273 282 270 256 264 270 252 264 264 266 267
Wind_Speed
38 65 74 77 79 82 82 87 92 105 106 107 107 100 106 100 103 103 98 86 81 82 83 82 37 85 84 84 89 89 86 81 91 87 81 79 79 80 67 80 71 67 63 67
36 61 63 78 77 80 83 83 88 100 105 106 106 107 110 99 101 102 102 98 87 86 86 82 85 84 84 84 42 88 91 58 68 86 89 85 84 71 73 84 82 84 88 83
21 63 68 76 74 79 81 78 66 89 98 100 103 106 106 101 99 101 100 100 85 82 58 64 71 82 84 82 84 82 86 88 86 84 79 82 87 86 79 84 87 84 83 83
22 69 66 69 73 78 77 77 78 86 86 90 100 101 100 97 95 96 89 98 86 71 86 86 83 82 82 82 82 85 83 84 88 86 83 67 87 84 87 83 70 91 90 90
19 67 64 64 68 68 74 72 74 78 83 92 102 99 97 98 94 93 92 94 95 85 88 93 83 84 81 79 81 82 81 81 85 85 89 88 72 82 86 85 91 94 85 82
29 63 62 59 58 63 64 63 69 70 84 92 93 91 95 91 84 87 89 88 93 91 85 91 88 85 82 82 80 82 82 86 83 87 85 82 93 79 82 89 93 74 73 97
32 62 57 53 54 66 56 61 64 75 83 84 87 88 89 88 87 86 87 88 90 91 86 89 80 86 88 82 79 79 84 83 83 84 87 82 88 93 69 86 89 91 89 90
36 59 57 52 54 63 47 42 61 66 74 78 80 81 84 80 79 81 83 86 84 87 85 88 83 88 87 85 84 80 82 83 79 84 85 89 79 88 100 95 76 84 93 91
28 44 51 52 54 58 56 52 50 46 65 73 72 75 78 72 75 81 84 83 83 86 89 84 84 88 88 91 85 83 81 82 83 79 80 85 90 87 80 93 78 80 80 86
29 37 43 48 48 54 52 37 47 48 57 69 68 69 72 73 77 82 83 81 85 85 87 88 89 85 84 85 89 85 83 81 81 87 82 85 89 96 85 88 83 98 100 87
34 39 41 44 45 46 48 38 29 52 39 60 65 53 58 70 75 77 79 81 84 87 87 86 88 86 85 90 85 87 87 84 82 82 87 83 88 89 97 88 83 86 89 95
34 40 43 44 41 39 42 31 33 35 28 50 52 48 65 66 72 59 77 81 84 83 83 84 85 86 86 89 86 88 89 88 86 85 86 86 87 91 92 96 101 88 89 87
1 29 33 28 25 29 32 27 31 35 34 39 59 54 64 67 58 67 72 77 77 78 81 81 84 83 83 85 86 88 88 89 89 88 89 89 89 93 94 93 92 93 92 88
23 26 26 24 24 26 37 27 26 33 30 46 55 52 49 63 63 66 64 65 68 71 72 73 74 77 72 67 84 87 89 91 90 91 92 93 93 94 94 93 95 93 93 91
20 22 23 22 25 29 19 30 30 34 42 42 53 53 60 60 57 61 64 62 67 68 67 66 64 65 67 64 63 59 60 75 89 91 93 94 95 96 97 96 96 95 96 95
26 28 13 22 7 22 27 24 29 34 35 44 48 55 45 49 55 63 63 68 70 68 73 67 62 61 59 59 56 50 54 63 66 67 75 92 95 47 98 98 98 97 96 97
10 10 6 18 22 14 24 26 28 28 32 34 44 48 51 54 56 63 65 68 71 72 71 69 68 59 72 73 73 68 64 58 64 69 70 73 77 81 90 98 98 98 98 98
25 17 12 14 17 19 28 28 33 29 29 30 36 40 46 58 60 65 62 62 63 68 67 64 63 56 63 65 61 63 67 68 69 62 66 71 73 75 77 81 85 89 94 98
26 16 21 18 24 26 31 37 36 39 38 37 37 35 43 48 59 61 64 60 61 68 68 65 66 68 65 63 64 67 64 66 66 66 68 67 67 68 65 66 68 68 71 74
27 20 28 26 27 31 34 35 36 39 43 41 41 40 47 48 55 58 59 59 59 65 69 68 69 68 66 68 68 68 62 68 68 68 68 68 68 60 48 64 63 71 63 40
18 18 34 32 35 32 36 38 35 40 42 45 45 46 47 49 51 54 58 59 60 61 63 66 67 67 66 65 59 58 57 55 54 57 57 58 61 65 57 60 42 45 42 51
24 22 20 24 34 34 36 36 44 45 46 45 40 45 47 50 52 53 55 57 59 61 61 61 63 64 64 62 62 59 59 57 55 53 58 50 50 53 50 53 45 45 50 35
27 27 26 23 23 31 36 36 41 42 45 48 47 46 48 49 50 56 56 56 57 58 58 54 54 56 59 59 58 59 58 53 54 53 47 49 49 44 42 44 45 32 35 33
86 32 31 28 27 27 27 30 35 42 45 47 48 49 53 53 50 53 53 57 58 58 58 57 58 56 54 55 54 54 55 54 49 45 46 46 39 41 45 43 37 39 33 32
82 21 34 36 32 31 31 31 32 31 31 33 32 40 42 46 51 52 52 54 55 55 55 57 58 56 52 52 55 55 55 45 40 43 41 40 45 39 40 42 41 38 37 34
82 62 26 34 41 39 38 36 36 35 36 37 37 36 36 36 37 39 41 41 42 42 48 46 45 43 39 39 40 46 43 44 44 44 41 45 47 44 38 45 39 38 37 35
Wind_Direction
195 199 200 203 204 208 210 208 207 211 214 214 216 222 223 223 224 224 226 223 223 225 225 226 233 233 234 231 235 236 240 244 242 245 246 248 250 252 259 256 262 264 264 265
194 191 199 202 201 207 207 209 207 210 213 214 215 218 223 221 222 224 224 227 220 223 225 226 229 231 234 235 238 235 237 244 247 245 245 247 249 253 256 257 259 260 261 263
195 182 196 201 198 205 208 208 211 211 212 213 214 219 222 222 221 223 224 227 223 224 229 227 235 232 235 237 240 234 239 240 244 246 250 251 248 250 255 257 256 262 265 265
188 183 192 204 198 201 205 208 210 210 209 212 215 219 221 223 223 224 224 228 224 225 227 227 229 233 234 237 238 241 238 239 242 242 246 250 250 249 249 252 260 254 260 264
176 179 188 201 197 201 203 209 211 208 208 209 214 217 220 222 221 223 225 227 226 222 226 229 229 231 232 238 238 241 242 241 243 243 244 247 250 250 250 253 253 254 262 266
171 172 183 195 198 198 201 203 211 210 210 212 216 216 220 222 223 225 226 227 229 228 228 229 228 230 238 234 236 240 241 243 243 244 243 246 246 252 251 254 256 261 261 256
165 171 182 188 194 198 198 201 207 209 210 214 216 216 220 220 221 223 225 227 229 230 228 230 231 231 234 239 236 238 242 243 243 245 246 245 245 248 257 254 254 257 259 262
162 172 180 180 190 197 199 200 207 211 210 213 216 217 221 220 221 224 225 228 230 231 231 232 230 238 237 236 238 237 242 244 244 244 246 247 248 248 248 253 257 258 258 262
154 165 175 178 190 198 200 202 204 203 213 213 214 216 220 220 221 223 225 228 230 231 233 230 230 237 233 237 239 240 239 243 245 246 249 248 249 251 252 250 259 259 258 259
149 158 169 180 194 199 200 200 204 206 210 212 214 216 218 218 218 223 226 227 230 232 233 233 230 232 235 240 238 241 241 243 244 246 246 250 249 249 254 254 255 252 257 262
148 152 163 179 192 198 199 199 202 208 204 210 214 214 217 217 221 224 226 228 230 232 234 235 236 234 234 238 239 241 243 243 243 245 245 248 251 254 252 255 255 259 260 257
157 167 181 192 190 196 202 188 201 199 196 208 210 213 216 218 219 218 225 228 232 234 236 238 239 239 236 238 240 241 243 244 245 246 247 248 249 251 254 253 253 259 262 265
133 180 185 192 184 189 199 189 201 204 197 203 211 211 215 219 217 222 226 229 233 237 239 241 242 243 242 242 241 242 244 245 246 246 248 249 249 251 253 255 257 256 257 264
163 174 180 181 179 184 199 183 191 199 196 201 213 212 212 219 220 224 225 230 235 239 242 244 246 247 249 250 245 244 244 246 247 248 249 250 251 253 254 255 257 258 259 260
174 180 175 168 183 194 173 197 188 190 204 205 216 216 218 221 220 225 229 231 234 238 241 245 248 251 251 252 252 251 250 249 247 249 250 252 254 255 256 258 258 259 260 260
344 350 201 170 230 178 198 179 195 199 197 209 214 217 217 214 217 225 227 232 236 239 241 244 248 252 254 255 254 253 250 250 250 248 248 250 252 267 255 256 257 259 260 261
296 223 245 186 183 207 181 184 195 200 209 215 220 220 221 218 220 225 226 231 236 241 243 245 246 249 251 252 253 255 255 253 252 252 251 251 252 252 253 256 258 259 261 262
331 223 226 214 193 209 199 198 210 208 212 219 224 225 220 223 225 230 228 233 237 243 245 247 249 250 252 254 256 258 259 258 257 257 256 255 255 255 255 256 256 257 258 259
329 285 238 228 211 204 208 219 212 218 217 220 224 227 222 225 227 234 235 234 235 242 245 246 248 251 252 254 255 257 258 260 261 261 261 261 260 260 264 262 262 262 262 262
324 279 240 241 237 219 220 219 219 219 228 226 224 224 229 228 227 231 233 235 235 240 246 249 251 253 254 254 256 258 261 262 263 264 265 265 266 267 268 264 264 262 265 277
294 260 235 242 243 240 231 224 225 219 224 226 228 230 231 233 233 233 235 238 239 239 242 246 250 252 254 256 258 261 262 262 263 263 264 264 265 267 268 268 273 269 275 269
276 276 262 238 236 239 240 235 227 226 235 239 231 232 233 237 239 239 239 240 243 246 247 249 249 252 254 256 260 261 264 265 268 267 264 261 262 265 268 270 274 272 270 270
250 254 258 253 245 231 235 236 233 234 234 238 240 236 234 236 238 239 242 242 244 246 250 255 254 253 254 257 260 261 263 265 268 263 261 262 263 266 268 269 273 271 270 274
10 342 247 247 245 242 238 237 239 237 238 240 241 242 242 243 243 240 241 245 248 251 254 255 255 256 259 260 260 262 263 267 264 260 260 258 263 264 263 268 277 271 275 266
2 283 242 242 244 242 240 241 240 237 235 237 253 247 247 244 243 243 247 248 251 253 255 259 259 258 259 260 261 262 263 259 255 257 258 253 256 260 260 263 268 272 271 268
354 347 254 241 237 239 240 239 238 240 239 242 241 241 237 234 238 241 241 245 248 247 250 249 250 253 256 257 261 261 253 253 252 252 252 251 258 257 259 262 262 263 266 266